This is the latest recevied weather packets stored in our database for station/object WB0RXX. If no packets are shown the sender has not sent any weather packets the latest 10 day(s).
| Time | Temp. | Humidity | Pressure | Rain* | Wind** | Luminosity | Snow |
|---|---|---|---|---|---|---|---|
| 1777927205 | 12.22° C | 44% | 1005.7 hPa | 0 mm | - | - | - |
| 1777926605 | 12.22° C | 44% | 1005.5 hPa | 0 mm | - | - | - |
| 1777926004 | 12.78° C | 43% | 1005.6 hPa | 0 mm | - | - | - |
| 1777925403 | 12.78° C | 44% | 1005.6 hPa | 0 mm | - | - | - |
| 1777924804 | 13.33° C | 46% | 1005.4 hPa | 0 mm | - | - | - |
| 1777924203 | 12.78° C | 46% | 1005.2 hPa | 0 mm | - | - | - |
| 1777923603 | 13.33° C | 46% | 1004.9 hPa | 0 mm | - | - | - |
| 1777923019 | 13.33° C | 47% | 1004.8 hPa | 0 mm | - | - | - |
| 1777922405 | 13.33° C | 46% | 1004.9 hPa | 0 mm | - | - | - |
| 1777921804 | 13.89° C | 45% | 1004.8 hPa | 0 mm | - | - | - |
| 1777921203 | 13.89° C | 45% | 1004.7 hPa | 0 mm | - | - | - |
| 1777920604 | 13.33° C | 46% | 1004.5 hPa | 0 mm | - | - | - |
| 1777920005 | 13.33° C | 46% | 1004.5 hPa | 0 mm | - | - | - |
| 1777919405 | 13.33° C | 47% | 1004.4 hPa | 0 mm | - | - | - |
| 1777918805 | 13.33° C | 47% | 1004.2 hPa | 0 mm | - | - | - |
| 1777918204 | 13.33° C | 45% | 1004.2 hPa | 0 mm | - | - | - |
| 1777917604 | 13.33° C | 46% | 1003.8 hPa | 0 mm | - | - | - |
| 1777917005 | 12.78° C | 45% | 1003.7 hPa | 0 mm | - | - | - |
| 1777916404 | 12.78° C | 47% | 1003.7 hPa | 0 mm | - | - | - |
| 1777915804 | 12.78° C | 49% | 1003.5 hPa | 0 mm | - | - | - |
| 1777915205 | 13.33° C | 49% | 1003.6 hPa | 0 mm | - | - | - |
| 1777914604 | 13.33° C | 47% | 1003.7 hPa | 0 mm | - | - | - |
| 1777914005 | 12.78° C | 46% | 1003.5 hPa | 0 mm | - | - | - |
| 1777913403 | 12.78° C | 49% | 1003.3 hPa | 0 mm | - | - | - |
| 1777912803 | 12.22° C | 48% | 1003.3 hPa | 0 mm | - | - | - |
* Rain latest hour (hover to see other rain measurements)
** Current wind speed in m/s (hover to see current wind gust speed)